Location: Lewisville
(33.0462°N, 96.9942°W)
Time: 13:06:31
(UTC-06:00)

ISS - Pass Details

Date: 29 April 2019
Orbit: 416 x 423 km, 51.6° (Epoch: 17 February)

Event Time Altitude Azimuth Distance (km) Brightness Sun altitude
Exits shadow 03:52:04 - 83° (E) 1,624 -0.2 -31.0°
Enters shadow 04:49:20 -68° 228° (SW) 12,270 3.6 -22.0°
Maximum altitude 05:26:19 38° 321° (NW) 679 -2.8 -15.5°
